Time,TemperatureF,DewpointF,PressureIn,WindDirection,WindDirectionDegrees,WindSpeedMPH,WindSpeedGustMPH,Humidity,HourlyPrecipIn,Conditions,Clouds,dailyrainin,SoftwareType,DateUTC
2013-04-24 00:00:00,54.0,40.3,30.20,North,-999,-999.0,-999.0,59,0.00,n/a,n/a,-99.99,Henriksen +1-Wire,2013-04-24 04:00:00,
2013-04-24 00:15:00,53.7,40.3,30.20,North,-999,-999.0,-999.0,60,0.00,n/a,n/a,-99.99,Henriksen +1-Wire,2013-04-24 04:15:00,
2013-04-24 00:30:00,53.3,40.1,30.20,North,-999,-999.0,-999.0,60,0.00,n/a,n/a,-99.99,Henriksen +1-Wire,2013-04-24 04:30:00,
2013-04-24 00:45:00,53.1,40.1,30.20,North,-999,-999.0,-999.0,60,0.00,n/a,n/a,-99.99,Henriksen +1-Wire,2013-04-24 04:45:00,
2013-04-24 01:00:00,52.8,40.0,30.18,North,-999,-999.0,-999.0,61,0.00,n/a,n/a,-99.99,Henriksen +1-Wire,2013-04-24 05:00:00,
2013-04-24 01:15:00,52.5,40.0,30.18,North,-999,-999.0,-999.0,62,0.00,n/a,n/a,-99.99,Henriksen +1-Wire,2013-04-24 05:15:00,
2013-04-24 01:30:00,52.1,39.8,30.18,North,-999,-999.0,-999.0,62,0.00,n/a,n/a,-99.99,Henriksen +1-Wire,2013-04-24 05:30:00,
2013-04-24 01:45:00,51.8,39.8,30.18,North,-999,-999.0,-999.0,63,0.00,n/a,n/a,-99.99,Henriksen +1-Wire,2013-04-24 05:45:00,
2013-04-24 02:00:00,51.7,39.9,30.18,North,-999,-999.0,-999.0,63,0.00,n/a,n/a,-99.99,Henriksen +1-Wire,2013-04-24 06:00:00,
2013-04-24 02:15:00,51.5,39.9,30.18,North,-999,-999.0,-999.0,64,0.00,n/a,n/a,-99.99,Henriksen +1-Wire,2013-04-24 06:15:00,
2013-04-24 02:30:00,51.4,40.0,30.17,North,-999,-999.0,-999.0,64,0.00,n/a,n/a,-99.99,Henriksen +1-Wire,2013-04-24 06:30:00,
2013-04-24 02:45:00,51.0,39.7,30.17,North,-999,-999.0,-999.0,64,0.00,n/a,n/a,-99.99,Henriksen +1-Wire,2013-04-24 06:45:00,
2013-04-24 03:00:00,50.7,39.5,30.16,North,-999,-999.0,-999.0,65,0.00,n/a,n/a,-99.99,Henriksen +1-Wire,2013-04-24 07:00:00,
2013-04-24 03:15:00,50.7,39.7,30.17,North,-999,-999.0,-999.0,65,0.00,n/a,n/a,-99.99,Henriksen +1-Wire,2013-04-24 07:15:00,
2013-04-24 03:30:00,50.7,39.9,30.16,North,-999,-999.0,-999.0,65,0.00,n/a,n/a,-99.99,Henriksen +1-Wire,2013-04-24 07:30:00,
2013-04-24 03:45:00,50.0,39.3,30.16,North,-999,-999.0,-999.0,66,0.00,n/a,n/a,-99.99,Henriksen +1-Wire,2013-04-24 07:45:00,
2013-04-24 04:00:00,49.8,39.5,30.16,North,-999,-999.0,-999.0,67,0.00,n/a,n/a,-99.99,Henriksen +1-Wire,2013-04-24 08:00:00,
2013-04-24 04:15:00,49.7,39.7,30.16,North,-999,-999.0,-999.0,68,0.00,n/a,n/a,-99.99,Henriksen +1-Wire,2013-04-24 08:15:00,
2013-04-24 04:30:00,49.1,39.0,30.16,North,-999,-999.0,-999.0,67,0.00,n/a,n/a,-99.99,Henriksen +1-Wire,2013-04-24 08:30:00,
2013-04-24 04:45:00,48.6,38.6,30.15,North,-999,-999.0,-999.0,68,0.00,n/a,n/a,-99.99,Henriksen +1-Wire,2013-04-24 08:45:00,
2013-04-24 04:59:00,48.2,38.5,30.15,North,-999,-999.0,-999.0,68,0.00,n/a,n/a,-99.99,Henriksen +1-Wire,2013-04-24 08:59:00,
2013-04-24 05:15:00,47.7,38.1,30.15,North,-999,-999.0,-999.0,68,0.00,n/a,n/a,-99.99,Henriksen +1-Wire,2013-04-24 09:15:00,
2013-04-24 05:30:00,47.4,37.8,30.15,North,-999,-999.0,-999.0,69,0.00,n/a,n/a,-99.99,Henriksen +1-Wire,2013-04-24 09:30:00,
2013-04-24 05:44:00,47.2,37.9,30.15,North,-999,-999.0,-999.0,69,0.00,n/a,n/a,-99.99,Henriksen +1-Wire,2013-04-24 09:44:00,
2013-04-24 05:59:00,47.1,38.0,30.15,North,-999,-999.0,-999.0,70,0.00,n/a,n/a,-99.99,Henriksen +1-Wire,2013-04-24 09:59:00,
2013-04-24 06:15:00,47.9,39.1,30.15,North,-999,-999.0,-999.0,71,0.00,n/a,n/a,-99.99,Henriksen +1-Wire,2013-04-24 10:15:00,
2013-04-24 06:29:00,48.6,39.8,30.15,North,-999,-999.0,-999.0,71,0.00,n/a,n/a,-99.99,Henriksen +1-Wire,2013-04-24 10:29:00,
2013-04-24 06:44:00,48.9,40.0,30.15,North,-999,-999.0,-999.0,71,0.00,n/a,n/a,-99.99,Henriksen +1-Wire,2013-04-24 10:44:00,
2013-04-24 07:00:00,49.3,40.3,30.15,North,-999,-999.0,-999.0,70,0.00,n/a,n/a,-99.99,Henriksen +1-Wire,2013-04-24 11:00:00,
2013-04-24 07:14:00,49.6,40.6,30.16,North,-999,-999.0,-999.0,70,0.00,n/a,n/a,-99.99,Henriksen +1-Wire,2013-04-24 11:14:00,
2013-04-24 07:29:00,49.9,40.9,30.16,North,-999,-999.0,-999.0,70,0.00,n/a,n/a,-99.99,Henriksen +1-Wire,2013-04-24 11:29:00,
2013-04-24 07:44:00,50.4,41.3,30.16,North,-999,-999.0,-999.0,70,0.00,n/a,n/a,-99.99,Henriksen +1-Wire,2013-04-24 11:44:00,
2013-04-24 07:59:00,51.0,41.8,30.16,North,-999,-999.0,-999.0,70,0.00,n/a,n/a,-99.99,Henriksen +1-Wire,2013-04-24 11:59:00,
2013-04-24 08:14:00,51.9,42.7,30.15,North,-999,-999.0,-999.0,70,0.00,n/a,n/a,-99.99,Henriksen +1-Wire,2013-04-24 12:14:00,
2013-04-24 08:29:00,53.1,43.6,30.15,North,-999,-999.0,-999.0,69,0.00,n/a,n/a,-99.99,Henriksen +1-Wire,2013-04-24 12:29:00,
2013-04-24 08:44:00,54.1,44.2,30.15,North,-999,-999.0,-999.0,68,0.00,n/a,n/a,-99.99,Henriksen +1-Wire,2013-04-24 12:44:00,
2013-04-24 08:59:00,55.0,44.5,30.15,North,-999,-999.0,-999.0,67,0.00,n/a,n/a,-99.99,Henriksen +1-Wire,2013-04-24 12:59:00,
2013-04-24 09:14:00,56.3,45.4,30.15,North,-999,-999.0,-999.0,66,0.00,n/a,n/a,-99.99,Henriksen +1-Wire,2013-04-24 13:14:00,
2013-04-24 09:29:00,57.1,45.6,30.14,North,-999,-999.0,-999.0,64,0.00,n/a,n/a,-99.99,Henriksen +1-Wire,2013-04-24 13:29:00,
2013-04-24 09:44:00,58.2,46.1,30.14,North,-999,-999.0,-999.0,63,0.00,n/a,n/a,-99.99,Henriksen +1-Wire,2013-04-24 13:44:00,
2013-04-24 09:59:00,59.4,46.8,30.13,North,-999,-999.0,-999.0,62,0.00,n/a,n/a,-99.99,Henriksen +1-Wire,2013-04-24 13:59:00,
2013-04-24 10:14:00,59.9,46.7,30.12,North,-999,-999.0,-999.0,61,0.00,n/a,n/a,-99.99,Henriksen +1-Wire,2013-04-24 14:14:00,
2013-04-24 10:29:00,60.3,47.0,30.13,North,-999,-999.0,-999.0,61,0.00,n/a,n/a,-99.99,Henriksen +1-Wire,2013-04-24 14:29:00,
2013-04-24 10:44:00,61.4,47.8,30.13,North,-999,-999.0,-999.0,60,0.00,n/a,n/a,-99.99,Henriksen +1-Wire,2013-04-24 14:44:00,
2013-04-24 10:59:00,62.7,48.4,30.12,North,-999,-999.0,-999.0,59,0.00,n/a,n/a,-99.99,Henriksen +1-Wire,2013-04-24 14:59:00,
2013-04-24 11:14:00,64.3,49.1,30.12,North,-999,-999.0,-999.0,57,0.00,n/a,n/a,-99.99,Henriksen +1-Wire,2013-04-24 15:14:00,
2013-04-24 11:29:00,66.2,49.6,30.13,North,-999,-999.0,-999.0,54,0.00,n/a,n/a,-99.99,Henriksen +1-Wire,2013-04-24 15:29:00,
2013-04-24 11:44:00,67.3,49.6,30.14,North,-999,-999.0,-999.0,52,0.00,n/a,n/a,-99.99,Henriksen +1-Wire,2013-04-24 15:44:00,
2013-04-24 11:59:00,67.4,49.2,30.15,North,-999,-999.0,-999.0,51,0.00,n/a,n/a,-99.99,Henriksen +1-Wire,2013-04-24 15:59:00,
2013-04-24 12:15:00,67.2,49.2,30.15,North,-999,-999.0,-999.0,51,0.00,n/a,n/a,-99.99,Henriksen +1-Wire,2013-04-24 16:15:00,
2013-04-24 12:29:00,67.8,49.5,30.15,North,-999,-999.0,-999.0,51,0.00,n/a,n/a,-99.99,Henriksen +1-Wire,2013-04-24 16:29:00,
2013-04-24 12:44:00,67.6,49.2,30.15,North,-999,-999.0,-999.0,51,0.00,n/a,n/a,-99.99,Henriksen +1-Wire,2013-04-24 16:44:00,
2013-04-24 12:59:00,66.9,49.2,30.15,North,-999,-999.0,-999.0,52,0.00,n/a,n/a,-99.99,Henriksen +1-Wire,2013-04-24 16:59:00,
2013-04-24 13:14:00,67.0,49.8,30.14,North,-999,-999.0,-999.0,53,0.00,n/a,n/a,-99.99,Henriksen +1-Wire,2013-04-24 17:14:00,
2013-04-24 13:29:00,67.4,50.2,30.14,North,-999,-999.0,-999.0,53,0.00,n/a,n/a,-99.99,Henriksen +1-Wire,2013-04-24 17:29:00,
2013-04-24 13:44:00,68.0,50.6,30.14,North,-999,-999.0,-999.0,53,0.00,n/a,n/a,-99.99,Henriksen +1-Wire,2013-04-24 17:44:00,
2013-04-24 13:59:00,68.0,50.7,30.14,North,-999,-999.0,-999.0,53,0.00,n/a,n/a,-99.99,Henriksen +1-Wire,2013-04-24 17:59:00,
2013-04-24 14:14:00,68.0,50.9,30.14,North,-999,-999.0,-999.0,53,0.00,n/a,n/a,-99.99,Henriksen +1-Wire,2013-04-24 18:14:00,
2013-04-24 14:29:00,68.0,50.8,30.14,North,-999,-999.0,-999.0,53,0.00,n/a,n/a,-99.99,Henriksen +1-Wire,2013-04-24 18:29:00,
2013-04-24 14:44:00,67.8,50.6,30.13,North,-999,-999.0,-999.0,53,0.00,n/a,n/a,-99.99,Henriksen +1-Wire,2013-04-24 18:44:00,
2013-04-24 14:59:00,68.1,51.0,30.12,North,-999,-999.0,-999.0,53,0.00,n/a,n/a,-99.99,Henriksen +1-Wire,2013-04-24 18:59:00,
2013-04-24 15:14:00,68.1,50.9,30.12,North,-999,-999.0,-999.0,53,0.00,n/a,n/a,-99.99,Henriksen +1-Wire,2013-04-24 19:14:00,
2013-04-24 15:29:00,67.9,50.8,30.11,North,-999,-999.0,-999.0,53,0.00,n/a,n/a,-99.99,Henriksen +1-Wire,2013-04-24 19:29:00,
2013-04-24 15:44:00,67.6,50.7,30.11,North,-999,-999.0,-999.0,54,0.00,n/a,n/a,-99.99,Henriksen +1-Wire,2013-04-24 19:44:00,
2013-04-24 15:59:00,67.4,50.8,30.10,North,-999,-999.0,-999.0,54,0.00,n/a,n/a,-99.99,Henriksen +1-Wire,2013-04-24 19:59:00,
2013-04-24 16:14:00,67.4,51.0,30.10,North,-999,-999.0,-999.0,55,0.00,n/a,n/a,-99.99,Henriksen +1-Wire,2013-04-24 20:14:00,
2013-04-24 16:29:00,67.3,51.0,30.10,North,-999,-999.0,-999.0,55,0.00,n/a,n/a,-99.99,Henriksen +1-Wire,2013-04-24 20:29:00,
2013-04-24 16:44:00,66.7,50.7,30.11,North,-999,-999.0,-999.0,55,0.00,n/a,n/a,-99.99,Henriksen +1-Wire,2013-04-24 20:44:00,
2013-04-24 16:59:00,66.0,50.3,30.11,North,-999,-999.0,-999.0,56,0.00,n/a,n/a,-99.99,Henriksen +1-Wire,2013-04-24 20:59:00,
2013-04-24 17:14:00,65.2,50.2,30.12,North,-999,-999.0,-999.0,57,0.00,n/a,n/a,-99.99,Henriksen +1-Wire,2013-04-24 21:14:00,
2013-04-24 17:29:00,64.6,50.6,30.12,North,-999,-999.0,-999.0,60,0.00,n/a,n/a,-99.99,Henriksen +1-Wire,2013-04-24 21:29:00,
2013-04-24 17:44:00,63.7,50.8,30.12,North,-999,-999.0,-999.0,62,0.00,n/a,n/a,-99.99,Henriksen +1-Wire,2013-04-24 21:44:00,
2013-04-24 17:59:00,63.0,51.3,30.13,North,-999,-999.0,-999.0,65,0.01,n/a,n/a,-99.99,Henriksen +1-Wire,2013-04-24 21:59:00,
2013-04-24 18:14:00,62.7,51.8,30.11,North,-999,-999.0,-999.0,67,0.01,n/a,n/a,-99.99,Henriksen +1-Wire,2013-04-24 22:14:00,
2013-04-24 18:29:00,62.5,52.3,30.12,North,-999,-999.0,-999.0,68,0.01,n/a,n/a,-99.99,Henriksen +1-Wire,2013-04-24 22:29:00,
2013-04-24 18:44:00,62.5,52.6,30.11,North,-999,-999.0,-999.0,69,0.01,n/a,n/a,-99.99,Henriksen +1-Wire,2013-04-24 22:44:00,
2013-04-24 18:59:00,62.1,52.5,30.12,North,-999,-999.0,-999.0,70,0.00,n/a,n/a,-99.99,Henriksen +1-Wire,2013-04-24 22:59:00,
2013-04-24 19:14:00,61.9,52.5,30.11,North,-999,-999.0,-999.0,71,0.00,n/a,n/a,-99.99,Henriksen +1-Wire,2013-04-24 23:14:00,
2013-04-24 19:29:00,61.6,52.3,30.11,North,-999,-999.0,-999.0,71,0.00,n/a,n/a,-99.99,Henriksen +1-Wire,2013-04-24 23:29:00,
2013-04-24 19:44:00,61.4,52.2,30.11,North,-999,-999.0,-999.0,71,0.00,n/a,n/a,-99.99,Henriksen +1-Wire,2013-04-24 23:44:00,
2013-04-24 19:59:00,61.2,52.1,30.11,North,-999,-999.0,-999.0,71,0.00,n/a,n/a,-99.99,Henriksen +1-Wire,2013-04-24 23:59:00,
2013-04-24 20:14:00,60.9,52.1,30.11,North,-999,-999.0,-999.0,72,0.00,n/a,n/a,-99.99,Henriksen +1-Wire,2013-04-25 00:14:00,
2013-04-24 20:29:00,60.7,52.0,30.12,North,-999,-999.0,-999.0,72,0.00,n/a,n/a,-99.99,Henriksen +1-Wire,2013-04-25 00:29:00,
2013-04-24 20:44:00,60.5,52.0,30.12,North,-999,-999.0,-999.0,73,0.00,n/a,n/a,-99.99,Henriksen +1-Wire,2013-04-25 00:44:00,
2013-04-24 20:59:00,60.2,51.8,30.12,North,-999,-999.0,-999.0,73,0.00,n/a,n/a,-99.99,Henriksen +1-Wire,2013-04-25 00:59:00,
2013-04-24 21:14:00,60.1,51.8,30.12,North,-999,-999.0,-999.0,73,0.00,n/a,n/a,-99.99,Henriksen +1-Wire,2013-04-25 01:14:00,
2013-04-24 21:29:00,60.0,51.9,30.13,North,-999,-999.0,-999.0,74,0.00,n/a,n/a,-99.99,Henriksen +1-Wire,2013-04-25 01:29:00,
2013-04-24 21:44:00,59.7,51.9,30.13,North,-999,-999.0,-999.0,75,0.00,n/a,n/a,-99.99,Henriksen +1-Wire,2013-04-25 01:44:00,
2013-04-24 21:59:00,59.4,51.8,30.13,North,-999,-999.0,-999.0,75,0.00,n/a,n/a,-99.99,Henriksen +1-Wire,2013-04-25 01:59:00,
2013-04-24 22:14:00,59.2,51.7,30.14,North,-999,-999.0,-999.0,75,0.00,n/a,n/a,-99.99,Henriksen +1-Wire,2013-04-25 02:14:00,
2013-04-24 22:29:00,59.0,51.7,30.14,North,-999,-999.0,-999.0,76,0.00,n/a,n/a,-99.99,Henriksen +1-Wire,2013-04-25 02:29:00,
2013-04-24 22:44:00,58.9,51.8,30.15,North,-999,-999.0,-999.0,77,0.00,n/a,n/a,-99.99,Henriksen +1-Wire,2013-04-25 02:44:00,
2013-04-24 22:59:00,58.8,51.7,30.15,North,-999,-999.0,-999.0,77,0.00,n/a,n/a,-99.99,Henriksen +1-Wire,2013-04-25 02:59:00,
2013-04-24 23:14:00,58.6,51.7,30.14,North,-999,-999.0,-999.0,77,0.00,n/a,n/a,-99.99,Henriksen +1-Wire,2013-04-25 03:14:00,
2013-04-24 23:29:00,58.5,51.5,30.15,North,-999,-999.0,-999.0,77,0.00,n/a,n/a,-99.99,Henriksen +1-Wire,2013-04-25 03:29:00,
2013-04-24 23:44:00,58.1,50.9,30.15,North,-999,-999.0,-999.0,76,0.00,n/a,n/a,-99.99,Henriksen +1-Wire,2013-04-25 03:44:00,
2013-04-24 23:59:00,57.4,50.0,30.15,North,-999,-999.0,-999.0,76,0.00,n/a,n/a,-99.99,Henriksen +1-Wire,2013-04-25 03:59:00,